EW7422 Weather Reports


Display with metric or nautical units.
time (UTC)temp
F
wind
direction
speed
MPH
gust
MPH
rain 1hr
in
rain 24hr
in
rain mn
in
humidity
%
barometer
mb
20190217153434 44 91 1.0 4.0 0.00 0.05 0.05 95 1012.6
20190217152434 43 167 1.0 3.0 0.00 0.05 0.05 95 1012.8
20190217151433 43 144 2.0 7.0 0.00 0.05 0.05 95 1013.0
20190217150433 43 148 1.0 3.0 0.00 0.05 0.05 95 1013.2
20190217145432 43 132 1.0 7.0 0.00 0.05 0.05 95 1013.2
20190217144432 43 94 2.0 6.0 0.00 0.05 0.05 95 1013.1
20190217143431 43 153 2.0 5.0 0.00 0.05 0.05 95 1012.8
20190217142433 43 177 1.0 4.0 0.01 0.05 0.05 95 1013.1
20190217141430 44 201 2.0 5.0 0.01 0.05 0.05 94 1012.8
20190217140430 44 132 2.0 7.0 0.01 0.05 0.05 95 1012.8
20190217135430 44 123 2.0 6.0 0.01 0.05 0.05 95 1013.2
20190217134430 44 122 1.0 9.0 0.02 0.05 0.05 95 1012.9
20190217133430 44 90 2.0 4.0 0.02 0.05 0.05 95 1012.7
20190217132430 44 140 1.0 6.0 0.01 0.04 0.04 95 1012.4
20190217131428 44 142 1.0 6.0 0.01 0.04 0.04 95 1012.4
20190217130434 44 121 2.0 6.0 0.02 0.04 0.04 95 1012.2
20190217125427 44 138 1.0 5.0 0.02 0.04 0.04 95 1012.2
20190217124427 44 90 1.0 4.0 0.01 0.03 0.03 94 1011.8
20190217123426 44 74 0.0 2.0 0.01 0.03 0.03 94 1012.2
20190217122426 44 77 1.0 5.0 0.01 0.04 0.03 94 1011.8
20190217121426 44 167 2.0 4.0 0.01 0.04 0.03 94 1011.6
20190217120425 44 109 0.0 3.0 0.00 0.03 0.02 94 1011.5
20190217115426 44 148 1.0 5.0 0.01 0.03 0.02 94 1011.6
20190217114424 44 100 0.0 2.0 0.01 0.03 0.02 95 1011.3
20190217113422 44 161 0.0 2.0 0.01 0.03 0.02 94 1011.5
20190217112421 44 128 0.0 0.0 0.02 0.03 0.02 94 1011.2
20190217111422 45 128 0.0 0.0 0.02 0.03 0.02 94 1011.3
20190217110421 45 142 1.0 3.0 0.02 0.03 0.02 94 1011.3
20190217105420 45 105 1.0 4.0 0.01 0.03 0.01 93 1011.2
20190217104419 45 130 1.0 5.0 0.01 0.03 0.01 93 1011.3
20190217103420 45 134 1.0 5.0 0.01 0.04 0.01 93 1011.3
20190217102418 45 163 1.0 4.0 0.00 0.04 0.00 92 1011.4
20190217101418 45 84 2.0 6.0 0.00 0.05 0.00 92 1011.0
20190217100417 45 88 0.0 5.0 0.00 0.06 0.00 91 1011.1
20190217095417 46 125 1.0 6.0 0.00 0.07 0.00 91 1011.5
20190217094417 46 165 1.0 6.0 0.00 0.09 0.00 91 1011.2
20190217093417 46 40 2.0 7.0 0.00 0.11 0.00 90 1011.4
20190217092417 46 130 1.0 6.0 0.00 0.13 0.00 89 1011.3
20190217091418 46 104 2.0 8.0 0.00 0.15 0.00 89 1011.4
20190217090417 47 104 2.0 7.0 0.00 0.17 0.00 88 1011.2
20190217085427 47 119 1.0 6.0 0.00 0.22 0.00 88 1011.2
20190217084426 47 128 2.0 6.0 0.00 0.24 0.00 87 1011.1
20190217083427 47 138 1.0 6.0 0.00 0.27 0.00 87 1011.1
20190217082427 47 94 1.0 6.0 0.00 0.27 0.00 87 1011.0
20190217081427 47 150 0.0 4.0 0.00 0.29 0.00 88 1011.1
20190217080427 47 109 0.0 3.0 0.00 0.31 0.00 88 1010.9
20190217075426 47 146 0.0 0.0 0.00 0.33 0.00 88 1010.6
20190217074428 47 22 0.0 0.0 0.00 0.34 0.00 88 1010.6
20190217073427 48 21 0.0 0.0 0.00 0.35 0.00 87 1010.6
20190217072427 48 25 0.0 5.0 0.00 0.36 0.00 87 1010.7
20190217071426 48 94 1.0 4.0 0.00 0.38 0.00 87 1010.6
20190217070427 48 109 1.0 7.0 0.00 0.38 0.00 87 1010.7
20190217065426 48 126 1.0 7.0 0.00 0.39 0.00 87 1010.9
20190217064427 48 92 3.0 7.0 0.00 0.42 0.00 87 1011.1
20190217063426 48 129 1.0 6.0 0.00 0.42 0.00 88 1011.0
20190217062426 48 190 0.0 0.0 0.00 0.42 0.00 90 1011.0
20190217061425 48 190 0.0 0.0 0.00 0.43 0.00 90 1010.7
20190217060425 48 190 0.0 0.0 0.00 0.43 0.00 89 1010.5
20190217055424 48 175 0.0 0.0 0.00 0.44 0.00 89 1010.2
20190217054425 48 132 0.0 0.0 0.00 0.44 0.00 88 1010.3
20190217053424 48 140 0.0 0.0 0.00 0.44 0.00 88 1010.4
20190217052425 48 148 1.0 6.0 0.00 0.44 0.00 88 1010.2
20190217051425 49 125 1.0 6.0 0.00 0.45 0.00 88 1010.3
20190217050424 49 78 1.0 8.0 0.00 0.45 0.00 88 1010.4
20190217045423 49 91 1.0 6.0 0.00 0.45 0.45 88 1010.3
20190217044423 49 130 0.0 4.0 0.00 0.45 0.45 87 1010.2
20190217043423 49 105 2.0 6.0 0.00 0.46 0.45 87 1010.2
20190217042421 50 79 1.0 8.0 0.00 0.47 0.45 87 1010.5
20190217041420 50 143 1.0 11.0 0.00 0.47 0.45 87 1010.3
20190217040421 50 136 2.0 6.0 0.00 0.48 0.45 86 1010.2
20190217035421 50 100 2.0 9.0 0.00 0.49 0.45 86 1010.5
20190217034421 51 120 3.0 8.0 0.00 0.49 0.45 85 1010.2
20190217033419 51 152 2.0 7.0 0.00 0.49 0.45 85 1010.2
20190217032419 52 145 2.0 6.0 0.00 0.49 0.45 85 1010.1
20190217031415 52 164 2.0 11.0 0.00 0.50 0.45 85 1010.3
20190217030416 52 161 3.0 8.0 0.00 0.50 0.45 84 1010.1
20190217025414 52 132 1.0 6.0 0.00 0.50 0.45 84 1009.8
20190217024413 53 90 0.0 3.0 0.00 0.50 0.45 84 1009.5
20190217023403 53 61 3.0 7.0 0.00 0.50 0.45 84 1009.5
20190217022400 53 155 2.0 6.0 0.00 0.50 0.45 84 1009.3
20190217021401 53 154 1.0 5.0 0.00 0.51 0.45 84 1009.0
20190217020401 53 83 3.0 8.0 0.00 0.51 0.45 84 1009.0
20190217015401 53 115 2.0 9.0 0.00 0.52 0.45 83 1008.7
20190217014401 54 159 2.0 7.0 0.00 0.52 0.45 82 1008.9
20190217013358 54 175 2.0 9.0 0.00 0.53 0.45 82 1008.8
20190217012402 54 148 2.0 7.0 0.00 0.53 0.45 81 1008.7
20190217011359 55 126 2.0 7.0 0.00 0.53 0.45 81 1008.7
20190217010359 55 95 1.0 6.0 0.00 0.54 0.45 80 1008.5
20190217005357 55 140 0.0 7.0 0.00 0.55 0.45 80 1008.5
20190217004356 56 146 0.0 5.0 0.00 0.55 0.45 79 1008.5
20190217003357 56 164 0.0 5.0 0.00 0.55 0.45 78 1008.5
20190217002355 56 164 1.0 7.0 0.00 0.56 0.45 77 1008.4
20190217001355 57 176 1.0 6.0 0.00 0.56 0.45 76 1008.1
20190217000355 56 72 0.0 1.0 0.00 0.57 0.45 73 1007.8
20190216235358 56 263 0.0 0.0 0.00 0.57 0.45 67 1007.9
20190216234355 56 263 0.0 0.0 0.00 0.58 0.45 68 1007.8
20190216233355 57 263 0.0 0.0 0.00 0.59 0.45 67 1007.5
20190216232355 58 263 0.0 0.0 0.00 0.59 0.45 66 1007.3
20190216231354 59 263 0.0 0.0 0.00 0.60 0.45 62 1007.2
20190216230353 59 263 0.0 0.0 0.00 0.60 0.45 61 1006.9
20190216225353 60 263 0.0 0.0 0.00 0.61 0.45 60 1006.7
20190216224353 60 267 1.0 4.0 0.00 0.61 0.45 59 1006.7
20190216223351 61 273 0.0 2.0 0.00 0.63 0.45 58 1006.6
20190216222356 61 268 2.0 7.0 0.00 0.64 0.45 58 1006.4
20190216221351 61 322 3.0 7.0 0.00 0.65 0.45 57 1006.2
20190216220355 62 273 4.0 9.0 0.00 0.65 0.45 57 1006.0
20190216215350 62 279 2.0 8.0 0.00 0.65 0.45 56 1005.9
20190216214350 62 252 2.0 8.0 0.00 0.65 0.45 58 1005.7
20190216213351 62 51 1.0 5.0 0.00 0.65 0.45 57 1005.6
20190216212350 63 317 2.0 7.0 0.00 0.65 0.45 58 1005.5
20190216211349 63 272 2.0 8.0 0.00 0.65 0.45 56 1005.5
20190216210348 64 295 2.0 8.0 0.00 0.65 0.45 56 1005.5
20190216205348 64 247 3.0 7.0 0.00 0.65 0.45 54 1005.4
20190216204349 64 296 3.0 9.0 0.00 0.65 0.45 54 1005.4
20190216203349 64 263 3.0 11.0 0.00 0.65 0.45 56 1005.3
20190216202348 64 309 2.0 8.0 0.00 0.65 0.45 55 1005.1
20190216201353 64 314 2.0 8.0 0.00 0.65 0.45 54 1005.2
20190216200347 63 338 3.0 9.0 0.00 0.65 0.45 57 1005.2
20190216195346 63 254 3.0 10.0 0.00 0.65 0.45 51 1005.3
20190216194346 64 278 3.0 9.0 0.00 0.65 0.45 53 1005.4
20190216193346 64 294 3.0 11.0 0.00 0.65 0.45 55 1005.6
20190216192346 63 269 4.0 9.0 0.00 0.65 0.45 60 1005.5
20190216191347 63 210 3.0 10.0 0.00 0.65 0.45 56 1005.5
20190216190346 62 266 5.0 10.0 0.00 0.65 0.45 58 1005.4
20190216185349 63 237 3.0 9.0 0.00 0.65 0.45 59 1005.2
20190216184345 62 227 3.0 10.0 0.00 0.65 0.45 57 1005.2
20190216183344 62 275 3.0 12.0 0.00 0.65 0.45 60 1005.4
20190216182344 62 230 5.0 10.0 0.00 0.65 0.45 60 1005.7
20190216181344 62 261 4.0 10.0 0.00 0.65 0.45 62 1005.6
20190216180344 61 278 3.0 7.0 0.00 0.65 0.45 66 1005.7
20190216175343 61 331 2.0 8.0 0.00 0.65 0.45 60 1005.8
20190216174344 61 26 3.0 8.0 0.00 0.65 0.45 63 1005.9
20190216173344 60 338 3.0 12.0 0.00 0.65 0.45 61 1006.0
20190216172342 60 300 3.0 11.0 0.00 0.65 0.45 67 1006.2
20190216171340 59 265 2.0 9.0 0.00 0.65 0.45 67 1006.2
20190216170340 58 7 3.0 11.0 0.00 0.65 0.45 67 1006.5
20190216165343 58 34 2.0 11.0 0.00 0.65 0.45 72 1006.6
20190216164340 57 265 1.0 7.0 0.00 0.65 0.45 73 1006.8
20190216163340 56 211 1.0 7.0 0.00 0.65 0.45 79 1006.8
20190216162340 56 227 2.0 5.0 0.00 0.65 0.45 79 1006.7
20190216161341 55 231 1.0 6.0 0.00 0.65 0.45 80 1006.6
20190216160338 55 271 1.0 5.0 0.00 0.65 0.45 81 1006.7
20190216155336 54 256 1.0 6.0 0.00 0.65 0.45 82 1006.8
20190216154336 53 225 1.0 4.0 0.00 0.65 0.45 85 1006.8